DW9417 Weather Reports


Display with metric or nautical units.
time (UTC)temp
F
wind
direction
speed
MPH
gust
MPH
rain 1hr
in
rain 24hr
in
rain mn
in
humidity
%
barometer
mb
20260905071558 63 327 3.0 11.0 0.00 0.00 0.00 62 1015.7
20260905070058 63 360 5.0 13.0 0.00 0.00 0.00 59 1015.9
20260905064611 63 325 6.0 11.0 0.00 0.00 0.00 59 1015.7
20260905063100 63 309 4.0 12.0 0.00 0.00 0.00 61 1015.9
20260905061615 63 5 7.0 13.0 0.00 0.00 0.00 58 1015.6
20260905060052 63 303 8.0 11.0 0.00 0.00 0.00 58 1016.0
20260905054556 62 319 6.0 12.0 0.00 0.00 0.00 60 1016.1
20260905053048 62 336 4.0 10.0 0.00 0.00 0.00 64 1016.4
20260905051604 63 337 6.0 13.0 0.00 0.00 0.00 57 1016.5
20260905050044 61 328 4.0 11.0 0.00 0.00 0.00 59 1016.8
20260905044552 62 296 3.0 10.0 0.00 0.00 0.00 59 1016.9
20260905043040 61 333 6.0 10.0 0.00 0.00 0.00 60 1017.3
20260905041537 60 298 6.0 11.0 0.00 0.00 0.00 61 1017.4
20260905040044 60 296 5.0 11.0 0.00 0.00 0.00 62 1017.7
20260905034536 60 38 6.0 12.0 0.00 0.00 0.00 61 1018.1
20260905033043 61 341 8.0 14.0 0.00 0.00 0.00 64 1018.4
20260905031528 59 294 6.0 9.0 0.00 0.00 0.00 64 1018.6
20260905030024 59 329 5.0 9.0 0.00 0.00 0.00 64 1018.9
20260905024522 59 315 6.0 10.0 0.00 0.00 0.00 65 1019.1
20260905023042 58 346 8.0 12.0 0.00 0.00 0.00 66 1019.2
20260905021518 58 296 5.0 11.0 0.00 0.00 0.00 66 1019.6
20260905020022 58 335 6.0 11.0 0.00 0.00 0.00 64 1019.7
20260905014512 58 326 4.0 9.0 0.00 0.00 0.00 65 1019.8
20260905013007 57 349 6.0 13.0 0.00 0.00 0.00 71 1020.0
20260905011503 56 38 3.0 9.0 0.00 0.00 0.00 73 1020.1
20260905010059 55 346 4.0 9.0 0.00 0.00 0.00 73 1020.3
20260905004556 54 350 3.0 8.0 0.00 0.00 0.00 77 1020.4
20260905003054 54 320 4.0 7.0 0.00 0.00 0.00 78 1020.4
20260905001552 53 16 3.0 6.0 0.00 0.00 0.00 80 1020.3
20260905000100 52 18 3.0 8.0 0.00 0.00 0.00 81 1020.3
20260904234544 51 31 2.0 4.0 0.00 0.00 0.00 82 1020.2
20260904233045 50 46 1.0 5.0 0.00 0.00 0.00 86 1020.4
20260904231537 49 57 0.0 3.0 0.00 0.00 0.00 87 1020.4
20260904230036 48 57 1.0 4.0 0.00 0.00 0.00 87 1020.3
20260904224536 48 57 1.0 3.0 0.00 0.00 0.00 86 1020.4
20260904223035 48 57 2.0 4.0 0.00 0.00 0.00 86 1020.3
20260904221535 48 69 2.0 4.0 0.00 0.00 0.00 86 1020.3
20260904220101 47 69 0.0 3.0 0.00 0.00 0.00 87 1020.3
20260904214533 47 69 1.0 4.0 0.00 0.01 0.00 87 1020.4
20260904213035 47 69 0.0 3.0 0.00 0.01 0.00 87 1020.3
20260904211530 47 5 0.0 3.0 0.00 0.01 0.00 87 1020.1
20260904210036 46 5 0.0 4.0 0.00 0.01 0.00 88 1020.1
20260904204529 46 251 0.0 3.0 0.00 0.01 0.00 88 1020.0
20260904203035 46 251 0.0 0.0 0.00 0.01 0.00 88 1020.0
20260904201527 45 251 0.0 2.0 0.00 0.01 0.00 88 1020.1
20260904200033 45 251 0.0 2.0 0.00 0.01 0.00 88 1020.0
20260904194544 45 251 0.0 3.0 0.00 0.01 0.00 87 1020.1
20260904193023 45 251 0.0 2.0 0.00 0.01 0.00 87 1020.1
20260904191535 45 251 0.0 1.0 0.00 0.01 0.00 87 1020.2
20260904190019 45 251 0.0 2.0 0.00 0.01 0.00 86 1020.5
20260904184519 46 251 0.0 2.0 0.00 0.01 0.00 85 1020.6
20260904183013 47 251 0.0 0.0 0.00 0.01 0.00 84 1020.7
20260904181509 48 251 0.0 1.0 0.00 0.01 0.00 81 1020.7
20260904180006 49 251 0.0 0.0 0.00 0.01 0.00 80 1020.8
20260904174502 50 251 0.0 0.0 0.00 0.01 0.00 80 1020.8
20260904173102 51 251 0.0 0.0 0.00 0.01 0.00 79 1020.9
20260904171604 51 251 0.0 3.0 0.00 0.01 0.00 79 1021.0
20260904170058 51 228 0.0 0.0 0.00 0.01 0.00 80 1021.2
20260904164555 51 228 0.0 0.0 0.00 0.01 0.00 80 1021.1
20260904163104 51 228 0.0 0.0 0.00 0.01 0.00 81 1021.1
20260904161553 51 228 0.0 0.0 0.00 0.01 0.00 81 1021.2
20260904160054 51 228 0.0 0.0 0.00 0.01 0.00 80 1021.3
20260904154549 51 212 0.0 0.0 0.00 0.01 0.01 78 1021.2
20260904153051 52 223 0.0 0.0 0.00 0.01 0.01 79 1021.3
20260904151548 51 224 0.0 3.0 0.00 0.01 0.01 81 1021.4
20260904150052 50 226 1.0 4.0 0.00 0.01 0.01 83 1021.5
20260904144548 49 219 0.0 0.0 0.00 0.01 0.01 86 1021.5
20260904143047 49 206 0.0 0.0 0.00 0.01 0.01 86 1021.4
20260904141545 48 136 0.0 1.0 0.00 0.01 0.01 87 1021.5
20260904140046 47 138 0.0 0.0 0.00 0.01 0.01 86 1021.5
20260904134547 47 136 0.0 0.0 0.00 0.01 0.01 85 1021.4
20260904133049 47 155 0.0 0.0 0.00 0.01 0.01 84 1021.5
20260904131543 48 163 0.0 0.0 0.00 0.01 0.01 81 1021.5
20260904130039 49 165 0.0 0.0 0.00 0.01 0.01 80 1021.7
20260904124540 50 175 0.0 0.0 0.00 0.01 0.01 77 1021.6
20260904123033 52 198 0.0 0.0 0.00 0.01 0.01 74 1021.6
20260904121527 53 193 0.0 0.0 0.00 0.01 0.01 72 1021.7
20260904120027 54 169 2.0 5.0 0.00 0.01 0.01 70 1021.6
20260904114525 56 188 2.0 4.0 0.00 0.01 0.01 68 1021.6
20260904113024 57 238 2.0 5.0 0.00 0.01 0.01 66 1021.5
20260904111521 56 176 5.0 8.0 0.00 0.01 0.01 66 1021.2
20260904110034 57 198 2.0 6.0 0.00 0.01 0.01 67 1021.1
20260904104519 57 200 3.0 6.0 0.00 0.01 0.01 67 1020.8
20260904103018 57 225 2.0 7.0 0.00 0.01 0.01 67 1020.6
20260904101516 58 202 1.0 6.0 0.00 0.01 0.01 69 1020.4
20260904100012 58 221 2.0 6.0 0.00 0.01 0.01 68 1020.1
20260904094511 58 218 2.0 4.0 0.00 0.02 0.01 71 1019.9
20260904093007 59 219 2.0 8.0 0.00 0.02 0.01 70 1019.6
20260904091505 59 210 4.0 10.0 0.00 0.02 0.01 69 1019.4
20260904090002 60 246 3.0 5.0 0.00 0.02 0.01 67 1019.2
20260904084503 61 208 3.0 7.0 0.00 0.13 0.01 67 1018.9
20260904083059 61 226 8.0 15.0 0.00 0.13 0.01 63 1018.7
20260904081557 61 221 4.0 8.0 0.00 0.13 0.01 67 1018.6
20260904080101 62 238 3.0 9.0 0.00 0.13 0.01 65 1018.3
20260904074555 63 248 4.0 11.0 0.00 0.22 0.01 62 1018.1
20260904073050 62 224 7.0 11.0 0.00 0.22 0.01 60 1017.8